WB4FAY-4 Weather Reports


time (UTC)temp
C
wind
direction
speed
KPH
gust
KPH
rain 1hr
cm
rain 24hr
cm
rain mn
cm
humidity
%
barometer
mb
20200218225617 18 332 6.4 11.3 0.00 0.00 0.00 96 1016.7
20200218224117 18 0 0.0 0.0 0.00 0.00 0.00 96 1016.4
20200218223117 18 0 0.0 0.0 0.00 0.00 0.00 96 1016.1
20200218222617 18 0 0.0 0.0 0.00 0.00 0.00 96 1016.1
20200218222116 18 0 0.0 0.0 0.00 0.00 0.00 96 1016.2
20200218221617 18 0 0.0 0.0 0.00 0.00 0.00 96 1016.0
20200218221116 18 0 0.0 0.0 0.00 0.00 0.00 96 1015.9
20200218220617 18 0 0.0 0.0 0.00 0.00 0.00 96 1015.9
20200218220117 18 0 0.0 0.0 0.00 0.00 0.00 96 1015.8
20200218215617 18 0 0.0 0.0 0.00 0.00 0.00 96 1015.9
20200218214617 18 0 0.0 0.0 0.00 0.00 0.00 96 1016.0
20200218213617 18 0 0.0 0.0 0.00 0.00 0.00 96 1015.7
20200218213117 18 0 0.0 0.0 0.00 0.00 0.00 96 1015.8
20200218212617 18 0 0.0 0.0 0.00 0.00 0.00 96 1015.8
20200218211618 18 192 0.0 1.6 0.00 0.00 0.00 96 1015.9
20200218211117 17 0 0.0 0.0 0.00 0.00 0.00 96 1015.9
20200218205617 18 0 0.0 0.0 0.00 0.00 0.00 96 1015.8
20200218204617 18 0 0.0 0.0 0.00 0.00 0.00 96 1015.9
20200218204116 18 0 0.0 0.0 0.00 0.00 0.00 96 1016.0
20200218203617 18 0 0.0 0.0 0.00 0.00 0.00 96 1016.0
20200218203117 18 0 0.0 0.0 0.00 0.00 0.00 96 1016.1
20200218202617 18 0 0.0 0.0 0.00 0.00 0.00 96 1016.1
20200218202117 18 0 0.0 0.0 0.00 0.00 0.00 96 1016.0
20200218201616 17 0 0.0 0.0 0.00 0.00 0.00 96 1016.2
20200218201117 17 0 0.0 0.0 0.00 0.00 0.00 96 1016.3
20200218200617 17 0 0.0 0.0 0.00 0.00 0.00 96 1016.2
20200218200117 17 0 0.0 0.0 0.00 0.00 0.00 96 1016.2
20200218195617 17 0 0.0 0.0 0.00 0.00 0.00 96 1016.3
20200218195117 17 0 0.0 0.0 0.00 0.00 0.00 96 1016.4
20200218194617 17 0 0.0 0.0 0.00 0.00 0.00 96 1016.5
20200218194117 17 0 0.0 0.0 0.00 0.00 0.00 96 1016.6
20200218192617 17 0 0.0 0.0 0.00 0.00 0.00 96 1016.8
20200218191617 17 246 0.0 1.6 0.00 0.00 0.00 96 1016.9
20200218191117 17 239 0.0 4.8 0.00 0.00 0.00 96 1016.9
20200218190617 17 193 0.0 9.7 0.00 0.00 0.00 96 1016.8
20200218185617 17 230 0.0 4.8 0.00 0.00 0.00 96 1016.8
20200218185117 17 257 0.0 8.0 0.00 0.00 0.00 96 1016.9
20200218184617 17 220 0.0 9.7 0.00 0.00 0.00 96 1017.0
20200218184117 17 191 8.0 1.6 0.00 0.00 0.00 96 1016.9
20200218183617 17 203 0.0 8.0 0.00 0.00 0.00 96 1017.0
20200218183117 17 212 6.4 8.0 0.00 0.00 0.00 96 1017.0
20200218182617 17 250 0.0 6.4 0.00 0.00 0.00 96 1017.0
20200218182118 17 240 3.2 6.4 0.00 0.00 0.00 96 1017.1
20200218181617 17 196 0.0 8.0 0.00 0.00 0.00 96 1017.2
20200218181117 17 184 0.0 8.0 0.00 0.00 0.00 96 1017.2
20200218180617 17 0 0.0 0.0 0.00 0.00 0.00 96 1017.3
20200218175617 16 0 0.0 0.0 0.00 0.00 0.00 96 1017.5
20200218175117 16 0 0.0 0.0 0.00 0.00 0.00 96 1017.5
20200218174617 16 0 0.0 0.0 0.00 0.00 0.00 96 1017.6
20200218174117 16 0 0.0 0.0 0.00 0.00 0.00 96 1017.7
20200218173617 16 0 0.0 0.0 0.00 0.00 0.00 96 1017.8
20200218173117 16 0 0.0 0.0 0.00 0.00 0.00 96 1017.9
20200218172618 16 0 0.0 0.0 0.00 0.00 0.00 96 1018.0
20200218172118 16 0 0.0 0.0 0.00 0.00 0.00 96 1018.0
20200218171617 16 0 0.0 0.0 0.00 0.00 0.00 96 1018.2
20200218171117 16 0 0.0 0.0 0.00 0.00 0.00 96 1018.2
20200218170617 16 0 0.0 0.0 0.00 0.00 0.00 96 1018.2
20200218170117 16 0 0.0 0.0 0.00 0.00 0.00 96 1018.4
20200218165617 16 0 0.0 0.0 0.00 0.00 0.00 96 1018.4
20200218165117 16 0 0.0 0.0 0.00 0.00 0.00 96 1018.4
20200218164617 16 0 0.0 0.0 0.00 0.00 0.00 96 1018.5
20200218164117 16 0 0.0 0.0 0.00 0.00 0.00 96 1018.6
20200218163617 15 0 0.0 0.0 0.00 0.00 0.00 96 1018.7
20200218163117 15 0 0.0 0.0 0.00 0.00 0.00 96 1018.8
20200218162617 15 0 0.0 0.0 0.00 0.00 0.00 96 1018.9
20200218161616 15 0 0.0 0.0 0.00 0.00 0.00 96 1019.1
20200218160617 15 0 0.0 0.0 0.00 0.00 0.00 96 1019.1
20200218160117 15 0 0.0 0.0 0.00 0.00 0.00 96 1019.2
20200218155617 15 0 0.0 0.0 0.00 0.00 0.00 96 1019.1
20200218155117 15 0 0.0 0.0 0.00 0.00 0.00 96 1019.1
20200218154617 15 0 0.0 0.0 0.00 0.00 0.00 96 1019.1
20200218154117 15 0 0.0 0.0 0.00 0.00 0.00 96 1019.2
20200218153617 15 0 0.0 0.0 0.00 0.00 0.00 96 1019.3
20200218153117 15 0 0.0 0.0 0.00 0.00 0.00 96 1019.3
20200218152618 15 0 0.0 0.0 0.00 0.00 0.00 96 1019.3
20200218151117 15 0 0.0 0.0 0.00 0.00 0.00 96 1019.4
20200218150617 15 0 0.0 0.0 0.00 0.00 0.00 96 1019.4
20200218150117 15 0 0.0 0.0 0.00 0.00 0.00 96 1019.4
20200218145617 15 0 0.0 0.0 0.00 0.00 0.00 96 1019.4
20200218145117 15 0 0.0 0.0 0.00 0.00 0.00 96 1019.4
20200218144117 15 0 0.0 0.0 0.00 0.00 0.00 96 1019.5
20200218143117 15 0 0.0 0.0 0.00 0.00 0.00 96 1019.3
20200218142617 15 0 0.0 0.0 0.00 0.00 0.00 96 1019.3
20200218142117 15 0 0.0 0.0 0.00 0.00 0.00 96 1019.4
20200218141617 15 0 0.0 0.0 0.00 0.00 0.00 96 1019.3
20200218140617 15 0 0.0 0.0 0.00 0.00 0.00 96 1019.1
20200218135617 15 0 0.0 0.0 0.00 0.00 0.00 96 1019.2
20200218135117 15 0 0.0 0.0 0.00 0.00 0.00 96 1019.1
20200218134617 15 0 0.0 0.0 0.00 0.00 0.00 96 1019.1
20200218134117 15 0 0.0 0.0 0.00 0.00 0.00 96 1019.0
20200218133617 14 0 0.0 0.0 0.00 0.00 0.00 96 1018.9
20200218133117 14 0 0.0 0.0 0.00 0.00 0.00 96 1018.8
20200218132617 14 0 0.0 0.0 0.00 0.00 0.00 96 1018.8
20200218132117 14 0 0.0 0.0 0.00 0.00 0.00 96 1018.8
20200218131617 14 0 0.0 0.0 0.00 0.00 0.00 96 1018.7
20200218131117 14 0 0.0 0.0 0.00 0.00 0.00 96 1018.8
20200218130617 14 0 0.0 0.0 0.00 0.00 0.00 96 1018.7
20200218130117 14 0 0.0 0.0 0.00 0.00 0.00 96 1018.6
20200218124617 14 0 0.0 0.0 0.00 0.00 0.00 96 1018.6
20200218124117 14 0 0.0 0.0 0.00 0.00 0.00 96 1018.5
20200218123118 14 0 0.0 0.0 0.00 0.00 0.00 96 1018.4
20200218122617 14 202 0.0 1.6 0.00 0.00 0.00 96 1018.4
20200218121617 14 0 0.0 0.0 0.00 0.00 0.00 96 1018.4
20200218121117 14 0 0.0 0.0 0.00 0.00 0.00 96 1018.3
20200218120617 14 0 0.0 0.0 0.00 0.00 0.00 96 1018.0
20200218120117 14 0 0.0 0.0 0.00 0.00 0.00 96 1017.9
20200218115617 14 0 0.0 0.0 0.00 0.00 0.00 96 1017.9
20200218115117 14 0 0.0 0.0 0.00 0.00 0.00 96 1017.9
20200218114617 14 0 0.0 0.0 0.00 0.00 0.00 96 1017.8
20200218114117 14 0 0.0 0.0 0.00 0.00 0.00 96 1017.8
20200218113617 14 47 0.0 3.2 0.00 0.00 0.00 96 1017.7
20200218113117 14 37 0.0 3.2 0.00 0.00 0.00 96 1017.8
20200218112617 14 0 0.0 0.0 0.00 0.00 0.00 96 1017.8
20200218112117 14 0 0.0 0.0 0.00 0.00 0.00 96 1017.8
20200218111617 15 0 0.0 0.0 0.00 0.00 0.00 96 1017.8
20200218111117 14 0 0.0 0.0 0.00 0.00 0.00 96 1017.9
20200218110617 14 0 0.0 0.0 0.00 0.00 0.00 96 1017.9
20200218110117 14 0 0.0 0.0 0.00 0.00 0.00 96 1017.8
20200218105616 14 0 0.0 0.0 0.00 0.00 0.00 96 1017.7
20200218105117 14 0 0.0 0.0 0.00 0.00 0.00 96 1017.7
20200218104617 14 45 0.0 1.6 0.00 0.00 0.00 96 1017.7
20200218104117 14 353 0.0 1.6 0.00 0.00 0.00 96 1017.5
20200218103617 15 353 0.0 1.6 0.00 0.00 0.00 96 1017.4
20200218103117 14 336 0.0 6.4 0.00 0.00 0.00 96 1017.5
20200218102617 14 72 6.4 3.2 0.00 0.00 0.00 96 1017.5
20200218102117 14 162 0.0 3.2 0.00 0.00 0.00 96 1017.6
20200218101616 14 328 1.6 6.4 0.00 0.00 0.00 96 1017.7
20200218101117 14 0 3.2 0.0 0.00 0.00 0.00 96 1017.5
20200218100617 14 1 0.0 4.8 0.00 0.00 0.00 96 1017.5
20200218095617 14 0 0.0 0.0 0.00 0.00 0.00 96 1017.5
20200218095117 14 0 0.0 0.0 0.00 0.00 0.00 96 1017.5
20200218094118 14 0 0.0 0.0 0.00 0.00 0.00 96 1017.3
20200218093617 14 79 0.0 3.2 0.00 0.00 0.00 96 1017.3
20200218093117 14 335 0.0 4.8 0.00 0.00 0.00 96 1017.2
20200218091617 14 49 0.0 1.6 0.00 0.00 0.00 96 1017.2
20200218091117 14 0 0.0 0.0 0.00 0.00 0.00 96 1017.2
20200218090617 14 0 0.0 0.0 0.00 0.00 0.00 96 1017.3
20200218090117 13 0 0.0 0.0 0.00 0.00 0.00 96 1017.1
20200218085617 14 0 0.0 0.0 0.00 0.00 0.00 96 1017.2
20200218085117 14 0 0.0 0.0 0.00 0.00 0.00 96 1017.1
20200218084617 14 0 0.0 0.0 0.00 0.00 0.00 96 1017.2
20200218084117 14 0 0.0 0.0 0.00 0.00 0.00 96 1017.5
20200218083617 14 66 0.0 3.2 0.00 0.00 0.00 96 1017.5
20200218083118 14 336 0.0 6.4 0.00 0.00 0.00 96 1017.7
20200218082117 13 96 0.0 6.4 0.00 0.00 0.00 96 1017.5
20200218081618 14 0 0.0 0.0 0.00 0.00 0.00 95 1017.8
20200218081117 14 239 0.0 6.4 0.00 0.00 0.00 95 1017.8
20200218080616 13 189 1.6 4.8 0.00 0.00 0.00 95 1018.3
20200218080117 13 185 3.2 6.4 0.00 0.00 0.00 95 1018.2
20200218075617 14 251 3.2 4.8 0.00 0.00 0.00 95 1018.0
20200218075117 14 343 0.0 3.2 0.00 0.00 0.00 95 1018.3
20200218074617 14 100 3.2 3.2 0.00 0.00 0.00 95 1017.9
20200218074117 14 119 0.0 1.6 0.00 0.00 0.00 95 1018.2
20200218073117 14 0 0.0 0.0 0.00 0.00 0.00 95 1017.9
20200218072617 14 0 0.0 0.0 0.00 0.00 0.00 95 1018.3
20200218072117 14 0 0.0 0.0 0.00 0.00 0.00 95 1018.6
20200218071117 14 34 0.0 1.6 0.00 0.00 0.00 94 1018.2
20200218070617 14 78 0.0 9.7 0.00 0.00 0.00 94 1018.4
20200218070117 14 73 6.4 8.0 0.00 0.00 0.00 94 1017.6
20200218065617 14 251 0.0 1.6 0.00 0.00 0.00 93 1018.0
20200218065117 14 257 0.0 3.2 0.00 0.00 0.00 93 1018.2
20200218064617 14 282 1.6 4.8 0.00 0.00 0.00 92 1018.3
20200218064118 15 138 0.0 3.2 0.00 0.00 0.00 92 1018.3
20200218063617 14 185 0.0 3.2 0.00 0.00 0.00 92 1018.2
20200218063117 15 97 1.6 3.2 0.00 0.00 0.00 91 1018.0
20200218062617 15 61 1.6 3.2 0.00 0.00 0.00 91 1017.8
20200218062118 15 90 1.6 4.8 0.00 0.00 0.00 91 1017.6
20200218061617 15 0 4.8 0.0 0.00 0.00 0.00 90 1017.5
20200218061116 15 256 0.0 4.8 0.00 0.00 0.00 90 1017.7
20200218060617 15 236 0.0 4.8 0.00 0.00 0.00 90 1017.9
20200218060117 15 66 1.6 9.7 0.00 0.00 0.00 91 1017.9
20200218055617 15 253 1.6 9.7 0.00 0.00 0.00 91 1017.8
20200218055117 15 55 1.6 6.4 0.00 0.00 0.00 91 1017.9
20200218054617 14 155 1.6 6.4 0.00 0.00 0.00 90 1017.9
20200218054117 15 95 4.8 9.7 0.00 0.00 0.00 90 1017.9
20200218053617 15 241 3.2 9.7 0.00 0.00 0.00 90 1018.0
20200218053117 15 268 1.6 9.7 0.00 0.00 0.00 90 1017.9
20200218052617 14 97 1.6 8.0 0.00 0.00 0.00 90 1017.8
20200218052116 14 144 1.6 8.0 0.00 0.00 0.00 90 1017.7
20200218051617 14 75 3.2 8.0 0.00 0.00 0.00 90 1017.8
20200218051117 15 138 1.6 11.3 0.00 0.00 0.00 90 1017.8
20200218050617 15 95 9.7 8.0 0.00 0.00 0.00 90 1017.7
20200218050117 15 73 0.0 6.4 0.00 0.00 0.00 90 1017.8
20200218045617 15 76 6.4 4.8 0.00 0.00 0.00 90 1017.6
20200218045117 15 99 1.6 6.4 0.00 0.00 0.00 90 1017.9
20200218044117 15 34 3.2 4.8 0.00 0.00 0.00 90 1018.2
20200218043617 15 79 3.2 9.7 0.00 0.00 0.00 90 1018.3
20200218043117 15 131 8.0 9.7 0.00 0.00 0.00 90 1018.2
20200218042617 15 119 3.2 8.0 0.00 0.00 0.00 90 1018.3
20200218042117 15 268 1.6 9.7 0.00 0.00 0.00 90 1018.3
20200218041617 15 236 1.6 6.4 0.00 0.00 0.00 90 1018.3
20200218041117 15 186 0.0 9.7 0.00 0.00 0.00 90 1018.4
20200218040617 15 263 0.0 6.4 0.00 0.00 0.00 90 1018.5
20200218040117 15 265 1.6 11.3 0.00 0.00 0.00 90 1018.3
20200218035617 15 172 6.4 9.7 0.00 0.00 0.00 90 1018.3
20200218035117 15 154 1.6 11.3 0.00 0.00 0.00 90 1018.0
20200218034617 15 136 4.8 9.7 0.00 0.00 0.00 90 1018.0
20200218034117 15 251 4.8 8.0 0.00 0.00 0.00 90 1018.0
20200218033617 15 229 3.2 8.0 0.00 0.00 0.00 90 1018.2
20200218033117 15 271 6.4 6.4 0.00 0.00 0.00 90 1018.2
20200218032617 15 360 1.6 9.7 0.00 0.00 0.00 90 1018.2
20200218032117 15 240 1.6 4.8 0.00 0.00 0.00 90 1018.0
20200218031617 15 250 0.0 4.8 0.00 0.00 0.00 90 1018.2
20200218030117 15 179 1.6 6.4 0.00 0.00 0.00 90 1018.2
20200218025617 15 155 0.0 8.0 0.00 0.00 0.00 90 1018.2
20200218025116 15 160 3.2 12.9 0.00 0.00 0.00 90 1018.2
20200218024617 15 267 1.6 11.3 0.00 0.00 0.00 90 1018.2
20200218024117 15 21 0.0 4.8 0.00 0.00 0.00 90 1018.2
20200218023617 15 184 0.0 4.8 0.00 0.00 0.00 90 1018.0
20200218023117 15 234 1.6 9.7 0.00 0.00 0.00 90 1018.0
20200218022617 15 45 1.6 8.0 0.00 0.00 0.00 90 1018.0
20200218022117 15 116 0.0 8.0 0.00 0.00 0.00 90 1017.9
20200218021617 15 102 0.0 14.5 0.00 0.00 0.00 90 1017.9
20200218020617 15 112 0.0 9.7 0.00 0.00 0.00 90 1017.8
20200218020117 15 349 3.2 4.8 0.00 0.00 0.00 90 1017.8
20200218015616 15 188 0.0 8.0 0.00 0.00 0.00 90 1017.8
20200218015117 15 343 3.2 4.8 0.00 0.00 0.00 90 1017.7
20200218014617 15 32 0.0 4.8 0.00 0.00 0.00 90 1017.6
20200218014117 15 251 3.2 4.8 0.00 0.00 0.00 90 1017.4
20200218013617 15 73 0.0 11.3 0.00 0.00 0.00 90 1017.5
20200218013117 15 44 0.0 8.0 0.00 0.00 0.00 90 1017.4
20200218012616 15 152 4.8 14.5 0.00 0.00 0.00 90 1017.5
20200218012127 15 73 0.0 4.8 0.00 0.00 0.00 89 1017.5
20200218011117 15 102 0.0 8.0 0.00 0.00 0.00 89 1017.5
20200218010617 15 51 0.0 6.4 0.00 0.00 0.00 89 1017.6
20200218010117 15 344 4.8 8.0 0.00 0.00 0.00 89 1017.6
20200218005117 15 357 1.6 6.4 0.00 0.00 0.00 88 1017.5
20200218004617 15 275 1.6 4.8 0.00 0.00 0.00 88 1017.5
20200218004117 15 185 3.2 6.4 0.00 0.00 0.00 88 1017.7
20200218003617 15 305 0.0 6.4 0.00 0.00 0.00 87 1017.6
20200218003117 15 234 4.8 9.7 0.00 0.00 0.00 87 1017.6
20200218002616 15 147 4.8 11.3 0.00 0.00 0.00 87 1017.6
20200218002117 15 236 1.6 6.4 0.00 0.00 0.00 87 1017.5
20200218001617 15 226 0.0 6.4 0.00 0.00 0.00 87 1017.5
20200218001117 15 227 4.8 11.3 0.00 0.00 0.00 86 1017.5
20200218000617 15 230 0.0 12.9 0.00 0.00 0.00 86 1017.4
20200218000117 15 254 6.4 8.0 0.00 0.00 0.00 86 1017.3
20200217235617 15 299 3.2 4.8 0.00 0.00 0.00 86 1017.1
20200217235117 15 224 4.8 8.0 0.00 0.00 0.00 85 1017.0
20200217234617 16 349 3.2 4.8 0.00 0.00 0.00 85 1016.9
20200217234117 16 40 1.6 8.0 0.00 0.00 0.00 84 1016.8
20200217233617 16 117 0.0 6.4 0.00 0.00 0.00 84 1016.8
20200217232622 16 217 1.6 9.7 0.00 0.00 0.00 83 1016.9
20200217232117 16 241 1.6 6.4 0.00 0.00 0.00 83 1016.9
20200217231117 16 181 3.2 14.5 0.00 0.00 0.00 82 1016.8
20200217230617 16 246 6.4 8.0 0.00 0.00 0.00 82 1016.8
20200217230117 16 285 3.2 6.4 0.00 0.00 0.00 82 1016.7